^^
Your Local Weather - Clay, NY Station Historical Data
Daily Summary for January 26, 2018 Units:  English    Metric   Both
« Previous Day
Next Day »
Daily Weekly Monthly Yearly Custom
  High: Low: Average:
Temperature: 38.8 °F 11.2 °F 23.2 °F
Dew Point: 22.2 °F 7.0 °F 14.2 °F
Humidity: 84% 49% 70%
Wind Speed: 6.0mph 0.0mph 2mph
Wind Gust: 11.0mph - -
Wind- - East
Pressure: 30.63 in 30.35 in -
Precipitation: 0.03 in    
Historical Graphs
 
 
Tabular Data for January 26, 2018
Time Temperature Dew Point Pressure Wind Wind Speed Wind Gust Humidity Rainfall Rate (Hourly) solar
00:00 14.7 °F 7.6 °F 30.57 in Calm     73% 0.00 in 0 W/m2
00:05 14.6 °F 7.5 °F 30.57 in Calm     73% 0.00 in 0 W/m2
00:12 14.3 °F 7.5 °F 30.57 in Calm     74% 0.00 in 0 W/m2
00:18 14.1 °F 7.3 °F 30.57 in Calm     74% 0.00 in 0 W/m2
00:24 14.0 °F 7.5 °F 30.57 in Calm     75% 0.00 in 0 W/m2
00:29 13.8 °F 7.6 °F 30.57 in Calm     76% 0.00 in 0 W/m2
00:35 13.8 °F 8.2 °F 30.57 in Calm     78% 0.00 in 0 W/m2
00:42 13.6 °F 8.0 °F 30.57 in Calm     78% 0.00 in 0 W/m2
00:48 13.5 °F 8.2 °F 30.57 in Calm     79% 0.00 in 0 W/m2
00:53 13.3 °F 8.0 °F 30.57 in Calm     79% 0.00 in 0 W/m2
00:59 13.2 °F 7.9 °F 30.57 in Calm     79% 0.00 in 0 W/m2
01:05 13.2 °F 7.9 °F 30.57 in Calm     79% 0.00 in 0 W/m2
01:12 13.3 °F 8.0 °F 30.57 in Calm     79% 0.00 in 0 W/m2
01:18 13.2 °F 8.2 °F 30.57 in Calm     80% 0.00 in 0 W/m2
01:23 13.1 °F 8.1 °F 30.57 in Calm     80% 0.00 in 0 W/m2
01:30 13.1 °F 8.4 °F 30.57 in Calm     81% 0.00 in 0 W/m2
01:35 13.0 °F 8.3 °F 30.57 in Calm     81% 0.00 in 0 W/m2
01:42 12.9 °F 8.2 °F 30.57 in Calm     81% 0.00 in 0 W/m2
01:48 12.9 °F 8.4 °F 30.57 in Calm     82% 0.00 in 0 W/m2
01:53 12.8 °F 8.3 °F 30.58 in Calm     82% 0.00 in 0 W/m2
01:59 12.7 °F 8.2 °F 30.58 in Calm     82% 0.00 in 0 W/m2
02:05 12.7 °F 8.2 °F 30.58 in Calm     82% 0.00 in 0 W/m2
02:12 12.7 °F 8.2 °F 30.59 in Calm     82% 0.00 in 0 W/m2
02:18 12.7 °F 8.2 °F 30.59 in Calm     82% 0.00 in 0 W/m2
02:24 12.7 °F 8.2 °F 30.59 in Calm     82% 0.00 in 0 W/m2
02:29 12.7 °F 8.2 °F 30.59 in Calm     82% 0.00 in 0 W/m2
02:35 12.8 °F 8.3 °F 30.59 in Calm     82% 0.00 in 0 W/m2
02:42 12.9 °F 8.4 °F 30.59 in Calm     82% 0.00 in 0 W/m2
02:48 13.0 °F 8.5 °F 30.59 in Calm   1.0 mph 82% 0.00 in 0 W/m2
02:54 13.0 °F 8.5 °F 30.58 in Calm     82% 0.00 in 0 W/m2
02:59 12.8 °F 8.3 °F 30.58 in Calm     82% 0.00 in 0 W/m2
03:05 12.9 °F 8.4 °F 30.58 in ENE 1.0 mph 1.0 mph 82% 0.00 in 0 W/m2
03:12 12.8 °F 8.3 °F 30.58 in ENE 1.0 mph 1.0 mph 82% 0.00 in 0 W/m2
03:18 12.9 °F 8.4 °F 30.58 in ENE 1.0 mph 1.0 mph 82% 0.00 in 0 W/m2
03:23 12.8 °F 8.3 °F 30.58 in Calm   1.0 mph 82% 0.00 in 0 W/m2
03:29 12.7 °F 8.2 °F 30.59 in Calm     82% 0.00 in 0 W/m2
03:35 12.6 °F 8.1 °F 30.59 in Calm     82% 0.00 in 0 W/m2
03:42 12.5 °F 8.0 °F 30.59 in Calm     82% 0.00 in 0 W/m2
03:48 12.4 °F 8.0 °F 30.58 in Calm     82% 0.00 in 0 W/m2
03:53 12.4 °F 8.0 °F 30.58 in Calm     82% 0.00 in 0 W/m2
04:00 12.2 °F 7.8 °F 30.58 in Calm   1.0 mph 82% 0.00 in 0 W/m2
04:05 12.3 °F 8.1 °F 30.59 in Calm   1.0 mph 83% 0.00 in 0 W/m2
04:12 12.2 °F 8.0 °F 30.59 in Calm     83% 0.00 in 0 W/m2
04:18 12.4 °F 8.2 °F 30.58 in Calm   2.0 mph 83% 0.00 in 0 W/m2
04:23 12.4 °F 8.2 °F 30.58 in ENE 1.0 mph 4.0 mph 83% 0.00 in 0 W/m2
04:29 12.5 °F 8.3 °F 30.58 in ENE 1.0 mph 1.0 mph 83% 0.00 in 0 W/m2
04:36 12.5 °F 8.0 °F 30.58 in ENE 1.0 mph 1.0 mph 82% 0.00 in 0 W/m2
04:42 12.7 °F 8.2 °F 30.58 in Calm   1.0 mph 82% 0.00 in 0 W/m2
04:48 12.7 °F 8.0 °F 30.59 in Calm   1.0 mph 81% 0.00 in 0 W/m2
04:53 12.7 °F 8.0 °F 30.59 in Calm   1.0 mph 81% 0.00 in 0 W/m2
05:00 12.6 °F 7.9 °F 30.59 in Calm     81% 0.00 in 0 W/m2
05:05 12.4 °F 7.7 °F 30.60 in Calm     81% 0.00 in 0 W/m2
05:12 12.3 °F 7.6 °F 30.60 in Calm     81% 0.00 in 0 W/m2
05:18 12.1 °F 7.4 °F 30.60 in Calm   1.0 mph 81% 0.00 in 0 W/m2
05:23 12.0 °F 7.3 °F 30.60 in Calm   1.0 mph 81% 0.00 in 0 W/m2
05:29 12.0 °F 7.6 °F 30.60 in Calm     82% 0.00 in 0 W/m2
05:35 12.0 °F 7.6 °F 30.61 in Calm     82% 0.00 in 0 W/m2
05:42 12.1 °F 7.7 °F 30.61 in Calm     82% 0.00 in 0 W/m2
05:48 12.1 °F 7.7 °F 30.62 in Calm     82% 0.00 in 0 W/m2
05:53 11.9 °F 7.5 °F 30.62 in Calm     82% 0.00 in 0 W/m2
05:59 11.9 °F 7.5 °F 30.62 in Calm   1.0 mph 82% 0.00 in 0 W/m2
06:05 11.8 °F 7.4 °F 30.62 in ENE 1.0 mph 1.0 mph 82% 0.00 in 0 W/m2
06:12 11.7 °F 7.3 °F 30.62 in Calm   1.0 mph 82% 0.00 in 0 W/m2
06:18 11.6 °F 7.2 °F 30.62 in Calm   1.0 mph 82% 0.00 in 0 W/m2
06:24 11.8 °F 7.6 °F 30.62 in ENE 1.0 mph 2.0 mph 83% 0.00 in 0 W/m2
06:29 11.8 °F 7.4 °F 30.62 in ENE 1.0 mph 1.0 mph 82% 0.00 in 0 W/m2
06:35 11.7 °F 7.3 °F 30.62 in ENE 1.0 mph 2.0 mph 82% 0.00 in 0 W/m2
06:42 11.8 °F 7.4 °F 30.62 in ENE 1.0 mph 1.0 mph 82% 0.00 in 0 W/m2
06:48 11.7 °F 7.3 °F 30.62 in ENE 1.0 mph 2.0 mph 82% 0.00 in 0 W/m2
06:54 11.6 °F 7.2 °F 30.62 in Calm   1.0 mph 82% 0.00 in 0 W/m2
06:59 11.6 °F 7.2 °F 30.62 in ENE 1.0 mph 1.0 mph 82% 0.00 in 0 W/m2
07:05 11.5 °F 7.1 °F 30.62 in ENE 1.0 mph 1.0 mph 82% 0.00 in 0 W/m2
07:12 11.4 °F 7.2 °F 30.63 in Calm   2.0 mph 83% 0.00 in 0 W/m2
07:18 11.4 °F 7.2 °F 30.63 in Calm   2.0 mph 83% 0.00 in 0 W/m2
07:23 11.3 °F 7.1 °F 30.62 in Calm     83% 0.00 in 5 W/m2
07:30 11.2 °F 7.0 °F 30.62 in Calm     83% 0.00 in 7 W/m2
07:35 11.2 °F 7.0 °F 30.63 in Calm     83% 0.00 in 9 W/m2
07:42 11.2 °F 7.0 °F 30.63 in Calm     83% 0.00 in 12 W/m2
07:48 11.3 °F 7.1 °F 30.63 in Calm   1.0 mph 83% 0.00 in 16 W/m2
07:53 11.3 °F 7.1 °F 30.63 in Calm   1.0 mph 83% 0.00 in 19 W/m2
08:00 11.4 °F 7.2 °F 30.63 in Calm     83% 0.00 in 21 W/m2
08:06 11.7 °F 7.8 °F 30.62 in ENE 1.0 mph 4.0 mph 84% 0.00 in 23 W/m2
08:12 11.9 °F 7.7 °F 30.63 in ENE 1.0 mph 3.0 mph 83% 0.00 in 25 W/m2
08:18 12.2 °F 8.0 °F 30.63 in East 1.0 mph 3.0 mph 83% 0.00 in 30 W/m2
08:23 12.5 °F 8.3 °F 30.63 in East 1.0 mph 2.0 mph 83% 0.00 in 70 W/m2
08:30 12.8 °F 8.3 °F 30.62 in East 1.0 mph 1.0 mph 82% 0.00 in 134 W/m2
08:35 13.3 °F 8.8 °F 30.62 in East 2.0 mph 3.0 mph 82% 0.00 in 134 W/m2
08:42 13.9 °F 9.1 °F 30.62 in ESE 2.0 mph 2.0 mph 81% 0.00 in 172 W/m2
08:48 14.8 °F 9.7 °F 30.63 in ENE 2.0 mph 2.0 mph 80% 0.00 in 193 W/m2
08:54 15.3 °F 10.0 °F 30.63 in East 2.0 mph 2.0 mph 79% 0.00 in 202 W/m2
08:59 15.9 °F 10.0 °F 30.63 in ENE 2.0 mph 3.0 mph 77% 0.00 in 216 W/m2
09:05 16.6 °F 10.6 °F 30.62 in ESE 2.0 mph 3.0 mph 77% 0.00 in 230 W/m2
09:12 17.3 °F 10.7 °F 30.62 in ESE 1.0 mph 2.0 mph 75% 0.00 in 246 W/m2
09:18 17.7 °F 11.1 °F 30.62 in ENE 2.0 mph 3.0 mph 75% 0.00 in 260 W/m2
09:23 18.2 °F 11.3 °F 30.62 in ENE 2.0 mph 3.0 mph 74% 0.00 in 274 W/m2
09:29 18.4 °F 11.2 °F 30.62 in ENE 3.0 mph 3.0 mph 73% 0.00 in 290 W/m2
09:36 18.5 °F 11.3 °F 30.62 in East 3.0 mph 5.0 mph 73% 0.00 in 306 W/m2
09:42 19.9 °F 12.3 °F 30.62 in East 3.0 mph 3.0 mph 72% 0.00 in 322 W/m2
09:48 20.0 °F 12.1 °F 30.62 in East 3.0 mph 3.0 mph 71% 0.00 in 339 W/m2
09:53 20.6 °F 12.0 °F 30.62 in ESE 2.0 mph 5.0 mph 69% 0.00 in 350 W/m2
10:00 20.6 °F 12.4 °F 30.61 in NE 2.0 mph 2.0 mph 70% 0.00 in 364 W/m2
10:06 21.1 °F 12.5 °F 30.61 in SE 2.0 mph 3.0 mph 69% 0.00 in 371 W/m2
10:12 21.6 °F 13.0 °F 30.61 in East 2.0 mph 3.0 mph 69% 0.00 in 385 W/m2
10:18 22.1 °F 12.5 °F 30.60 in ENE 2.0 mph 7.0 mph 66% 0.00 in 396 W/m2
10:23 22.6 °F 13.3 °F 30.60 in ENE 3.0 mph 4.0 mph 67% 0.00 in 406 W/m2
10:29 22.7 °F 13.7 °F 30.60 in East 3.0 mph 5.0 mph 68% 0.00 in 417 W/m2
10:36 23.7 °F 14.3 °F 30.60 in SE 3.0 mph 5.0 mph 67% 0.00 in 425 W/m2
10:42 24.3 °F 14.6 °F 30.60 in SE 3.0 mph 3.0 mph 66% 0.00 in 436 W/m2
10:48 24.9 °F 14.4 °F 30.59 in East 3.0 mph 5.0 mph 64% 0.00 in 445 W/m2
10:53 25.3 °F 14.8 °F 30.59 in ENE 3.0 mph 3.0 mph 64% 0.00 in 454 W/m2
11:00 26.0 °F 15.1 °F 30.58 in ENE 3.0 mph 5.0 mph 63% 0.00 in 461 W/m2
11:06 26.8 °F 15.9 °F 30.58 in ENE 3.0 mph 7.0 mph 63% 0.00 in 466 W/m2
11:12 26.9 °F 16.0 °F 30.58 in ESE 3.0 mph 3.0 mph 63% 0.00 in 471 W/m2
11:18 26.9 °F 16.0 °F 30.58 in ENE 3.0 mph 7.0 mph 63% 0.00 in 478 W/m2
11:25 27.8 °F 16.5 °F 30.57 in ESE 3.0 mph 5.0 mph 62% 0.00 in 483 W/m2
11:32 27.7 °F 16.7 °F 30.57 in East 3.0 mph 3.0 mph 63% 0.00 in 485 W/m2
11:38 28.4 °F 17.0 °F 30.56 in ESE 4.0 mph 4.0 mph 62% 0.00 in 489 W/m2
11:43 28.7 °F 17.3 °F 30.55 in SSE 4.0 mph 6.0 mph 62% 0.00 in 489 W/m2
11:49 28.9 °F 17.1 °F 30.55 in ENE 4.0 mph 4.0 mph 61% 0.00 in 492 W/m2
11:55 29.2 °F 17.4 °F 30.55 in East 4.0 mph 5.0 mph 61% 0.00 in 490 W/m2
12:02 29.3 °F 17.5 °F 30.54 in ENE 4.0 mph 4.0 mph 61% 0.00 in 492 W/m2
12:08 29.5 °F 17.7 °F 30.54 in SE 4.0 mph 7.0 mph 61% 0.00 in 494 W/m2
12:14 29.9 °F 17.3 °F 30.53 in ENE 3.0 mph 7.0 mph 59% 0.00 in 490 W/m2
12:19 30.4 °F 18.2 °F 30.53 in East 3.0 mph 3.0 mph 60% 0.00 in 489 W/m2
12:25 30.8 °F 18.1 °F 30.52 in East 3.0 mph 6.0 mph 59% 0.00 in 504 W/m2
12:32 31.2 °F 18.9 °F 30.52 in SE 3.0 mph 3.0 mph 60% 0.00 in 461 W/m2
12:38 31.1 °F 18.4 °F 30.51 in ESE 3.0 mph 3.0 mph 59% 0.00 in 316 W/m2
12:43 30.6 °F 18.7 °F 30.51 in East 4.0 mph 5.0 mph 61% 0.00 in 295 W/m2
12:49 30.4 °F 17.8 °F 30.50 in East 4.0 mph 6.0 mph 59% 0.00 in 563 W/m2
12:55 30.3 °F 17.7 °F 30.50 in NE 5.0 mph 7.0 mph 59% 0.00 in 496 W/m2
13:02 31.2 °F 18.5 °F 30.49 in ENE 4.0 mph 5.0 mph 59% 0.00 in 478 W/m2
13:08 31.6 °F 18.5 °F 30.49 in East 4.0 mph 5.0 mph 58% 0.00 in 471 W/m2
13:13 32.5 °F 19.3 °F 30.49 in ENE 3.0 mph 3.0 mph 58% 0.00 in 468 W/m2
13:20 32.5 °F 18.5 °F 30.48 in ENE 3.0 mph 4.0 mph 56% 0.00 in 466 W/m2
13:25 32.7 °F 19.1 °F 30.48 in NNE 4.0 mph 6.0 mph 57% 0.00 in 455 W/m2
13:32 33.4 °F 19.8 °F 30.47 in ENE 3.0 mph 3.0 mph 57% 0.00 in 380 W/m2
13:38 34.4 °F 19.5 °F 30.46 in SE 2.0 mph 3.0 mph 54% 0.00 in 443 W/m2
13:43 35.6 °F 19.7 °F 30.47 in SE 4.0 mph 6.0 mph 52% 0.00 in 438 W/m2
13:49 36.2 °F 19.3 °F 30.47 in SE 6.0 mph 6.0 mph 50% 0.00 in 434 W/m2
13:55 37.0 °F 19.6 °F 30.46 in ESE 5.0 mph 6.0 mph 49% 0.00 in 404 W/m2
14:02 36.8 °F 19.9 °F 30.46 in SSE 5.0 mph 8.0 mph 50% 0.00 in 359 W/m2
14:08 37.2 °F 20.7 °F 30.46 in SE 5.0 mph 8.0 mph 51% 0.00 in 371 W/m2
14:14 36.8 °F 19.4 °F 30.46 in SSE 5.0 mph 9.0 mph 49% 0.00 in 330 W/m2
14:19 36.7 °F 19.8 °F 30.46 in ESE 6.0 mph 6.0 mph 50% 0.00 in 253 W/m2
14:25 36.8 °F 19.9 °F 30.46 in East 6.0 mph 11.0 mph 50% 0.00 in 313 W/m2
14:32 37.3 °F 19.9 °F 30.45 in East 5.0 mph 6.0 mph 49% 0.00 in 323 W/m2
14:38 37.6 °F 20.1 °F 30.45 in ESE 6.0 mph 6.0 mph 49% 0.00 in 306 W/m2
14:43 37.6 °F 20.6 °F 30.45 in East 5.0 mph 5.0 mph 50% 0.00 in 258 W/m2
14:49 37.5 °F 21.0 °F 30.44 in SE 4.0 mph 5.0 mph 51% 0.00 in 239 W/m2
14:56 37.6 °F 20.6 °F 30.44 in SSE 4.0 mph 5.0 mph 50% 0.00 in 237 W/m2
15:02 37.8 °F 20.3 °F 30.44 in SE 4.0 mph 6.0 mph 49% 0.00 in 276 W/m2
15:08 37.9 °F 21.8 °F 30.44 in SE 4.0 mph 7.0 mph 52% 0.00 in 311 W/m2
15:13 38.4 °F 21.4 °F 30.44 in South 4.0 mph 4.0 mph 50% 0.00 in 283 W/m2
15:19 38.3 °F 20.8 °F 30.44 in SSE 4.0 mph 7.0 mph 49% 0.00 in 287 W/m2
15:25 38.3 °F 21.3 °F 30.44 in SE 6.0 mph 7.0 mph 50% 0.00 in 271 W/m2
15:32 38.2 °F 21.6 °F 30.43 in SSE 5.0 mph 8.0 mph 51% 0.00 in 257 W/m2
15:38 38.5 °F 21.5 °F 30.43 in SSE 4.0 mph 8.0 mph 50% 0.00 in 230 W/m2
15:44 38.6 °F 21.1 °F 30.43 in SE 3.0 mph 6.0 mph 49% 0.00 in 218 W/m2
15:55 38.8 °F 22.2 °F 30.42 in ESE 3.0 mph 7.0 mph 51% 0.00 in 167 W/m2
16:02 38.6 °F 21.1 °F 30.42 in SE 3.0 mph 4.0 mph 49% 0.00 in 158 W/m2
16:08 38.8 °F 21.7 °F 30.42 in South 4.0 mph 5.0 mph 50% 0.00 in 146 W/m2
16:14 38.5 °F 21.5 °F 30.42 in South 4.0 mph 6.0 mph 50% 0.00 in 39 W/m2
16:20 38.4 °F 21.4 °F 30.42 in SSE 4.0 mph 6.0 mph 50% 0.00 in 35 W/m2
16:25 38.3 °F 22.2 °F 30.42 in SE 4.0 mph 6.0 mph 52% 0.00 in 32 W/m2
16:32 38.2 °F 21.6 °F 30.42 in ESE 3.0 mph 5.0 mph 51% 0.00 in 28 W/m2
16:38 38.0 °F 21.9 °F 30.42 in SE 4.0 mph 5.0 mph 52% 0.00 in 25 W/m2
16:43 37.8 °F 22.2 °F 30.42 in SSE 3.0 mph 5.0 mph 53% 0.00 in 21 W/m2
16:49 37.5 °F 21.9 °F 30.42 in SSE 2.0 mph 2.0 mph 53% 0.00 in 16 W/m2
16:55 37.1 °F 21.5 °F 30.42 in SSE 1.0 mph 4.0 mph 53% 0.00 in 12 W/m2
17:02 36.6 °F 21.9 °F 30.42 in SSE 1.0 mph 1.0 mph 55% 0.00 in 7 W/m2
17:08 36.2 °F 21.6 °F 30.42 in SE 1.0 mph 1.0 mph 55% 0.00 in 5 W/m2
17:14 35.3 °F 22.0 °F 30.42 in SE 1.0 mph 1.0 mph 58% 0.00 in 0 W/m2
17:19 33.9 °F 21.1 °F 30.42 in ENE 1.0 mph 1.0 mph 59% 0.00 in 0 W/m2
17:25 32.8 °F 20.0 °F 30.42 in ENE 1.0 mph 2.0 mph 59% 0.00 in 0 W/m2
17:32 31.9 °F 20.0 °F 30.42 in ENE 1.0 mph 2.0 mph 61% 0.00 in 0 W/m2
17:38 31.3 °F 19.8 °F 30.42 in ENE 1.0 mph 2.0 mph 62% 0.00 in 0 W/m2
17:43 30.7 °F 20.0 °F 30.42 in NE 1.0 mph 3.0 mph 64% 0.00 in 0 W/m2
17:50 30.4 °F 19.7 °F 30.42 in ENE 2.0 mph 3.0 mph 64% 0.00 in 0 W/m2
17:55 30.4 °F 19.3 °F 30.42 in ENE 3.0 mph 3.0 mph 63% 0.00 in 0 W/m2
18:02 30.1 °F 19.4 °F 30.42 in East 2.0 mph 6.0 mph 64% 0.00 in 0 W/m2
18:08 30.1 °F 19.4 °F 30.42 in ENE 3.0 mph 6.0 mph 64% 0.00 in 0 W/m2
18:13 29.8 °F 19.1 °F 30.42 in ENE 2.0 mph 3.0 mph 64% 0.00 in 0 W/m2
18:20 29.9 °F 18.8 °F 30.42 in ENE 3.0 mph 3.0 mph 63% 0.00 in 0 W/m2
18:25 29.6 °F 18.9 °F 30.42 in East 3.0 mph 5.0 mph 64% 0.00 in 0 W/m2
18:32 29.6 °F 18.5 °F 30.41 in ENE 3.0 mph 3.0 mph 63% 0.00 in 0 W/m2
18:38 29.4 °F 18.7 °F 30.42 in ENE 2.0 mph 3.0 mph 64% 0.00 in 0 W/m2
18:44 29.3 °F 18.6 °F 30.41 in ENE 2.0 mph 2.0 mph 64% 0.00 in 0 W/m2
18:49 29.0 °F 18.7 °F 30.41 in East 2.0 mph 2.0 mph 65% 0.00 in 0 W/m2
18:55 28.9 °F 18.6 °F 30.41 in ENE 2.0 mph 2.0 mph 65% 0.00 in 0 W/m2
19:02 28.9 °F 18.6 °F 30.41 in ENE 2.0 mph 2.0 mph 65% 0.00 in 0 W/m2
19:08 28.9 °F 18.6 °F 30.41 in ENE 2.0 mph 2.0 mph 65% 0.00 in 0 W/m2
19:13 28.8 °F 18.5 °F 30.41 in ENE 1.0 mph 3.0 mph 65% 0.00 in 0 W/m2
19:19 28.6 °F 18.7 °F 30.41 in ENE 1.0 mph 2.0 mph 66% 0.00 in 0 W/m2
19:26 28.5 °F 18.6 °F 30.41 in ENE 2.0 mph 3.0 mph 66% 0.00 in 0 W/m2
19:32 28.6 °F 18.3 °F 30.41 in ENE 2.0 mph 2.0 mph 65% 0.00 in 0 W/m2
19:38 28.5 °F 18.2 °F 30.41 in East 2.0 mph 6.0 mph 65% 0.00 in 0 W/m2
19:43 28.3 °F 18.4 °F 30.41 in ENE 3.0 mph 3.0 mph 66% 0.00 in 0 W/m2
19:50 28.3 °F 18.4 °F 30.40 in East 2.0 mph 2.0 mph 66% 0.00 in 0 W/m2
19:55 28.0 °F 18.1 °F 30.40 in ENE 2.0 mph 3.0 mph 66% 0.00 in 0 W/m2
20:02 28.0 °F 18.5 °F 30.40 in East 3.0 mph 5.0 mph 67% 0.00 in 0 W/m2
20:08 27.8 °F 18.3 °F 30.39 in East 3.0 mph 5.0 mph 67% 0.00 in 0 W/m2
20:13 28.0 °F 18.1 °F 30.39 in East 3.0 mph 5.0 mph 66% 0.00 in 0 W/m2
20:20 28.1 °F 18.2 °F 30.39 in East 4.0 mph 4.0 mph 66% 0.00 in 0 W/m2
20:25 28.1 °F 18.2 °F 30.39 in East 3.0 mph 4.0 mph 66% 0.00 in 0 W/m2
20:32 27.9 °F 18.0 °F 30.39 in East 3.0 mph 3.0 mph 66% 0.00 in 0 W/m2
20:38 28.0 °F 18.1 °F 30.39 in ENE 3.0 mph 5.0 mph 66% 0.00 in 0 W/m2
20:44 27.9 °F 18.0 °F 30.39 in ENE 3.0 mph 4.0 mph 66% 0.00 in 0 W/m2
20:50 27.9 °F 18.0 °F 30.39 in NE 3.0 mph 3.0 mph 66% 0.00 in 0 W/m2
20:55 27.6 °F 18.1 °F 30.39 in ENE 3.0 mph 3.0 mph 67% 0.00 in 0 W/m2
21:02 27.4 °F 18.2 °F 30.39 in ENE 3.0 mph 5.0 mph 68% 0.00 in 0 W/m2
21:08 27.3 °F 18.1 °F 30.39 in East 4.0 mph 5.0 mph 68% 0.00 in 0 W/m2
21:13 27.2 °F 18.0 °F 30.39 in East 3.0 mph 4.0 mph 68% 0.00 in 0 W/m2
21:19 26.8 °F 18.0 °F 30.38 in ENE 3.0 mph 4.0 mph 69% 0.00 in 0 W/m2
21:26 27.0 °F 18.2 °F 30.39 in East 3.0 mph 6.0 mph 69% 0.00 in 0 W/m2
21:32 27.1 °F 17.9 °F 30.39 in East 4.0 mph 5.0 mph 68% 0.00 in 0 W/m2
21:38 26.9 °F 18.1 °F 30.39 in East 4.0 mph 5.0 mph 69% 0.00 in 0 W/m2
21:43 26.6 °F 17.8 °F 30.38 in ENE 3.0 mph 7.0 mph 69% 0.00 in 0 W/m2
21:49 26.6 °F 18.1 °F 30.38 in ENE 3.0 mph 4.0 mph 70% 0.00 in 0 W/m2
21:56 26.9 °F 18.1 °F 30.38 in East 4.0 mph 7.0 mph 69% 0.00 in 0 W/m2
22:02 26.8 °F 18.0 °F 30.38 in ENE 4.0 mph 4.0 mph 69% 0.00 in 0 W/m2
22:08 26.6 °F 17.8 °F 30.38 in ENE 3.0 mph 4.0 mph 69% 0.00 in 0 W/m2
22:13 26.1 °F 17.6 °F 30.38 in ENE 3.0 mph 3.0 mph 70% 0.00 in 0 W/m2
22:20 25.9 °F 17.8 °F 30.38 in East 3.0 mph 3.0 mph 71% 0.00 in 0 W/m2
22:25 25.9 °F 17.8 °F 30.37 in ENE 3.0 mph 7.0 mph 71% 0.00 in 0 W/m2
22:32 26.4 °F 18.3 °F 30.37 in ENE 4.0 mph 5.0 mph 71% 0.00 in 0 W/m2
22:38 26.4 °F 18.3 °F 30.37 in ENE 4.0 mph 5.0 mph 71% 0.00 in 0 W/m2
22:44 26.1 °F 18.0 °F 30.37 in ENE 3.0 mph 5.0 mph 71% 0.00 in 0 W/m2
22:50 26.5 °F 18.0 °F 30.36 in NE 4.0 mph 4.0 mph 70% 0.00 in 0 W/m2
22:55 26.1 °F 18.0 °F 30.36 in ENE 3.0 mph 5.0 mph 71% 0.00 in 0 W/m2
23:02 26.0 °F 17.9 °F 30.36 in East 3.0 mph 3.0 mph 71% 0.00 in 0 W/m2
23:08 25.7 °F 17.9 °F 30.36 in East 2.0 mph 3.0 mph 72% 0.00 in 0 W/m2
23:13 25.5 °F 17.7 °F 30.36 in East 2.0 mph 2.0 mph 72% 0.00 in 0 W/m2
23:19 25.6 °F 17.8 °F 30.36 in ENE 2.0 mph 2.0 mph 72% 0.00 in 0 W/m2
23:26 25.4 °F 17.6 °F 30.36 in ENE 3.0 mph 5.0 mph 72% 0.00 in 0 W/m2
23:32 25.6 °F 17.8 °F 30.36 in ENE 3.0 mph 4.0 mph 72% 0.00 in 0 W/m2
23:38 25.5 °F 17.7 °F 30.36 in ENE 3.0 mph 4.0 mph 72% 0.00 in 0 W/m2
23:43 25.0 °F 17.6 °F 30.36 in ENE 2.0 mph 3.0 mph 73% 0.00 in 0 W/m2
23:49 25.0 °F 17.6 °F 30.35 in East 2.0 mph 2.0 mph 73% 0.00 in 0 W/m2
23:55 24.9 °F 17.5 °F 30.35 in East 2.0 mph 3.0 mph 73% 0.00 in 0 W/m2
Country Meadow, Clay, NY, USA
Compliments of Weather Underground - 2 mb